Regional Weather Roundup
Issued by NWS

Home | Current Version | Previous Version | Text Only | Print | Product List | Glossary On
Versions: 1 2 3 4 5 6 7 8 9 10 11 12 13 14 15 16 17 18 19 20 21 22 23 24 25 26 27 28 29 30 31 32 33 34 35 36 37 38 39 40 41 42 43 44 45 46 47 48 49 50
000
ASUS43 KLSX 111710
RWRMO

WEATHER SUMMARY FOR MISSOURI
NATIONAL WEATHER SERVICE SPRINGFIELD MO
1100 AM CST THU FEB 11 2016

NOTE: "FAIR" INDICATES FEW OR NO CLOUDS BELOW 12,000 FEET WITH NO
       SIGNIFICANT WEATHER AND/OR OBSTRUCTIONS TO VISIBILITY.
       CURRENT SKY AND/OR WEATHER CONDITIONS ARE NOT AVAILABLE FOR
       CHILLICOTHE AND FARMINGTON.

MOZ001>031-035>038-043-044-053-054-111800-
...NORTHERN AND WESTERN MISSOURI...

CITY           SKY/WX    TMP DP  RH WIND       PRES   REMARKS
KANSAS CTY INT MOSUNNY   28  20  71 CALM      30.29F
KANSAS C DTWN  MOSUNNY   32  21  64 NE7       30.31F WCI  26
LEE`S SUMMIT   SUNNY     29  20  69 NE7       30.30F WCI  22
ST JOSEPH      SUNNY     27  16  63 VRB6      30.33F WCI  20
CHILLICOTHE      N/A     27  11  51 NE5       30.34F WCI  22
KIRKSVILLE     SUNNY     18   3  52 E6        30.33F WCI  10

$$
MOZ066>068-077>081-088>096-101>105-111800-
...SOUTHWEST MISSOURI...

CITY           SKY/WX    TMP DP  RH WIND       PRES   REMARKS
SPRINGFIELD    SUNNY     37  16  42 NE10      30.21S WCI  30
JOPLIN         SUNNY     37  20  50 NE10      30.24S WCI  30

$$
MOZ032>034-039>042-045>050-055>058-069>072-111800-
...CENTRAL MISSOURI...

CITY           SKY/WX    TMP DP  RH WIND       PRES   REMARKS
COLUMBIA       CLOUDY    26  15  63 E8        30.33R WCI  18
JEFFERSON CITY SUNNY     28  17  63 E5        30.34R WCI  23
ROLLA          SUNNY     29  20  69 E10       30.26S WCI  20
SEDALIA        SUNNY     32  18  56 NE10      30.32R WCI  24
WHITEMAN AFB   MOSUNNY   32  19  58 E8        30.29S WCI  25
WARRENSBURG    SUNNY     32  21  64 NE8       30.31F WCI  25
OSAGE BEACH    SUNNY     34  19  55 NE9       30.29R WCI  26

$$
MOZ051-052-059>065-111800-
...EAST CENTRAL MISSOURI...

CITY           SKY/WX    TMP DP  RH WIND       PRES   REMARKS
ST LOUIS INTL  PTSUNNY   25  10  53 CALM      30.35R
SPIRIT OF STL  CLOUDY    25  17  72 NE6       30.35R WCI  18
ST CHARLES     SUNNY     25  12  58 NE3       30.36S

$$
MOZ072>076-082>087-097>100-106>115-111800-
...SOUTH CENTRAL AND SOUTHEAST MISSOURI...

CITY           SKY/WX    TMP DP  RH WIND       PRES   REMARKS
CAPE GIRARDEAU SUNNY     32  22  66 N10       30.31S WCI  24
FARMINGTON     SUNNY     31  21  66 NE9       30.29F WCI  23
POPLAR BLUFF   SUNNY     34  21  59 NE15      30.28S WCI  24
WEST PLAINS    SUNNY     36  15  42 E9        30.24R WCI  29

$$



USA.gov is the U.S. government's official web portal to all federal, state and local government web resources and services.